Regional Weather Roundup
Issued by NWS Charleston, SC

Current Version | Previous Version | Graphics & Text | Print | Product List | Glossary On
Versions: 1 2 3 4 5 6 7 8 9 10 11 12 13 14 15 16 17 18 19 20 21 22 23 24 25 26 27 28 29 30 31 32 33 34 35 36 37 38 39 40 41 42 43 44 45 46 47 48 49 50
000
ASUS42 KCHS 252013
RWRCHS

REGIONAL WEATHER ROUNDUP
NATIONAL WEATHER SERVICE CHARLESTON SC
400 PM EDT WED MAY 25 2016

NOTE: "FAIR" INDICATES FEW OR NO CLOUDS BELOW 12,000 FEET WITH NO
SIGNIFICANT WEATHER AND/OR OBSTRUCTIONS TO VISIBILITY.

NOT ALL STATIONS ARE QUALITY CONTROLLED. USE DATA WITH CAUTION...
ESPECIALLY DEWPOINT OBSERVATIONS.

SCZ027-030-031-034>040-042>050-252100-
...SOUTHEAST SOUTH CAROLINA...

CITY           SKY/WX    TMP DP  RH WIND       PRES   REMARKS
N CHARLESTON   MOSUNNY   86  60  41 S12       30.20F
WATERFRONT PRK   N/A     80  68  66 S12       30.18F
MOUNT PLEASANT FAIR      84  66  54 S9        30.20F
JOHNS ISLAND   FAIR      84  68  58 S9        30.21F
PINOPOLIS        N/A     90  52  27 CALM      30.12F
MONCKS CORNER  FAIR      84  45  24 N5        30.19F
SUMMERVILLE    FAIR      88  57  35 S3        30.21S
BEAUFORT MCAS  MOSUNNY   83  66  56 SE3       30.21F
BEAUFORT ARPT  FAIR      82  63  51 SW7       30.21F
HILTON HEAD IS MOSUNNY   84  70  61 S12       30.23F
WALTERBORO     MOCLDY    88  50  27 W7        30.20F
ALLENDALE      FAIR      90  55  31 CALM      30.19F

...SOUTHERN MIDLANDS AND PEE DEE...

CITY           SKY/WX    TMP DP  RH WIND       PRES   REMARKS
GEORGETOWN     MOCLDY    82  63  51 S13       30.21S
KINGSTREE      FAIR      90  50  25 SW3       30.19F
ORANGEBURG     SUNNY     86  51  29 VRB6      30.20F
BARNWELL       FAIR      90  55  31 CALM      30.20F
AIKEN          FAIR      86  52  30 W5        30.23F
MANNING        FAIR      86  50  28 CALM      30.20F
COLUMBIA       MOSUNNY   88  55  32 SE8       30.17F
SUMTER         SUNNY     88  55  32 W5        30.16F
FLORENCE       MOSUNNY   89  55  31 VRB3      30.18F
MYRTLE BEACH   MOSUNNY   82  64  54 S14       30.21F
N MYRTLE BEACH SUNNY     79  70  74 S13G22    30.20F

$$

GAZ063-065-086>088-099>101-113>116-118-119-134>141-150-252100-
...SOUTHEAST GEORGIA...

CITY           SKY/WX    TMP DP  RH WIND       PRES   REMARKS
SAVANNAH ARPT  PTSUNNY   85  60  42 SE12      30.20F
HUNTER AAF     PTSUNNY   83  66  56 SE7       30.19F
FORT STEWART   MOSUNNY   87  63  44 E8        30.17F
STATESBORO     MOSUNNY   88  58  36 CALM      30.20F
SYLVANIA       CLEAR     89  53  29 CALM      30.21F
CLAXTON        CLOUDY    86  59  40 E5        30.20F

...CSRA...CENTRAL AND FAR SOUTHEAST GEORGIA...

CITY           SKY/WX    TMP DP  RH WIND       PRES   REMARKS
THOMSON        SUNNY     90  58  33 CALM      30.24F
AUGUSTA-BUSH   SUNNY     88  54  31 VRB3      30.18F
AUGUSTA-DANIEL SUNNY     87  53  31 VRB5      30.20F
SWAINSBORO     FAIR      88  52  29 CALM      30.21F
VIDALIA        MOSUNNY   88  54  31 SE3       30.20F
EASTMAN        FAIR      89  56  32 S5        30.22F
HAZLEHURST     FAIR      88  53  29 CALM      30.18F
ALMA           MOSUNNY   87  56  34 S5        30.19F
WAYCROSS       MOSUNNY   87  57  36 SE7       30.19F
JESUP          FAIR      84  55  37 NE5       30.20F
BAXLEY         FAIR      90  52  27 SW5       30.19F
BRUNSWICK      MOSUNNY   90  59  35 SE9       30.22F
SAINT SIMONS   SUNNY     82  65  56 SE10      30.22F

$$

SCZ027-028-034-036>038-045-046-048>050-GAZ119-141-252100-
...LAKE AND SUPPLEMENTAL COASTAL OBSERVATIONS...

STATION/POSITION TIME  TEMP    WIND        PRES    WAVE   SWELL
                       AIR SEA DIR/SP/G            HT/PER HT/PER/DIR
                 (UTC) (F)     (DEG/KT/KT) (MB)    (FT/S) (FT/S/D)
WINYAH BAY       1845   80     170/ 11     1022.0
LAKE MURRAY      1900   85     250/  4/  5 1022.0F
ACE BASIN NERRS  NOT AVBL
FORT PULASKI     1900   80 76  150/  5/  8 1024.0F
SAPELO ISLAND    1900   87     160/  8     1023.0F

$$

ANZ835-935-AMZ111-154-330-350-352-354-370-450-454-472-252100-
...C-MAN AND BUOY OBSERVATIONS...

STATION/POSITION TIME  TEMP    WIND        PRES    WAVE   SWELL
                       AIR SEA DIR/SP/G            HT/PER HT/PER/DIR
                 (UTC) (F)     (DEG/KT/KT) (MB)    (FT/S) (FT/S/D)
BUOY 41004       1950   78 79  210/  2/  4 1023.4F   2/ 9   2/ 9
BUOY 41008       1950   78 79  150/  6/  8 1023.8F   2/10   2/100/10
FOLLY BEACH CMAN 2000   78     200/ 10/ 11 1023.4F
CAPERS NEARSHORE 1908   76 76  210/ 12/ 14 1023.2F
FRIPP NEARSHORE  1908   77 77  180/  8/ 10 1023.2F


STATION/POSITION TIME  TEMP    WIND        PRES    WAVE   SWELL
                       AIR SEA DIR/SP/G            HT/PER HT/PER/DIR
                 (UTC) (F)     (DEG/KT/KT) (MB)    (FT/S) (FT/S/D)
5E ST. MARYS GA  1921      79                N/A     2/11
FRYING PAN BUOY  1900   76 78  220/  8/ 10 1023.5F
BUOY 41025       1950   73 72  220/  8/ 10 1022.8F   2/ 9   2/ 70/ 9
CAPE LOOKOUT NC  2000   76     210/ 11/ 13 1022.5F
BUOY 41002       1950   75 79   80/  8/ 10 1023.7F   3/ 7   3/ 50/ 7
BUOY 41010       1920   77 79   40/ 12/ 14 1023.0F
ST AUGUSTINE FL  2000   78 81  100/  9/ 10 1024.2F


$$




USA.gov is the U.S. government's official web portal to all federal, state and local government web resources and services.